User: anonymous   Login
Location: Unspecified
(0.0000°N, 0.0000°E)
Time: 23:00:13
(UTC+00:00)
Language:

STARLINK-5224 - Orbit

View from above orbital plane
View from above orbital plane
View from above satellite
View from above satellite

Ground track
Ground track

The orbit is defined by the following mean orbital elements,

1 55397U          26145.45791536 +.00000000 +00000-0 -13158-4 0 00003
2 55397  69.9989 211.0451 0003434 269.5036  90.5730 14.98332468    02
Epoch (UTC): 25 May 2026 10:59:23
Eccentricity: 0.0003434
inclination: 69.9989°
perigee height: 570 km
apogee height: 574 km
right ascension of ascending node: 211.0451°
argument of perigee: 269.5036°
revolutions per day: 14.98332468
mean anomaly at epoch: 90.5730°

The dashed part of the orbit path shows where the satellite is in the earth's shadow,  

DLR